Location: Sungai Liu
(2.3667°N, 113.8667°E)
Time: 12:56:14
(UTC+00:00)

Cosmos 1825 Rocket - Pass Details

Date: 20 May 2022
Orbit: 603 x 630 km, 82.5° (Epoch: 07 July)

Event Time Altitude Azimuth Distance (km) Brightness Sun altitude
Rises 21:32:12 0° 187° (S) 2,915 6.7 -10.6°
Reaches altitude 10° 21:34:26 10° 189° (S) 2,007 5.9 -10.1°
Maximum altitude 21:38:52 73° 273° (W) 658 3.5 -9.1°
Drops below altitude 10° 21:43:18 10° 359° (N) 1,998 6.4 -8.0°
Sets 21:45:32 0° 1° (N) 2,900 7.3 -7.5°
